Hourly Weather Charhin

Today, 17 April, Saturday

Time Temperature Precipitation Wind Pressure Humidity
00:00 +16°C° 0 mm 1 mps 721 mmHg 29%
01:00 +15°C° 0 mm 1 mps 721 mmHg 30%
02:00 +15°C° 0 mm 1 mps 721 mmHg 31%
03:00 +14°C° 0 mm 1 mps 721 mmHg 32%
04:00 +14°C° 0 mm 1 mps 721 mmHg 33%
05:00 +15°C° 0 mm 1 mps 722 mmHg 33%
06:00 +16°C° 0 mm 1 mps 722 mmHg 32%
07:00 +19°C° 0 mm 1 mps 723 mmHg 32%
08:00 +20°C° 0 mm 1 mps 723 mmHg 28%
09:00 +22°C° 0 mm 1 mps 723 mmHg 25%
10:00 +23°C° 0 mm 1 mps 723 mmHg 22%
11:00 +24°C° 0 mm 1 mps 723 mmHg 21%
12:00 +25°C° 0 mm 2 mps 723 mmHg 20%
13:00 +26°C° 0 mm 2 mps 723 mmHg 19%
14:00 +25°C° 0 mm 3 mps 723 mmHg 20%
15:00 +25°C° 0 mm 4 mps 722 mmHg 22%
16:00 +25°C° 0 mm 4 mps 722 mmHg 23%
17:00 +23°C° 0 mm 4 mps 722 mmHg 25%
18:00 +21°C° 0 mm 3 mps 723 mmHg 28%
19:00 +20°C° 0 mm 3 mps 723 mmHg 30%
20:00 +19°C° 0 mm 3 mps 723 mmHg 30%
21:00 +19°C° 0 mm 3 mps 723 mmHg 31%
22:00 +19°C° 0 mm 3 mps 723 mmHg 31%
23:00 +18°C° 0 mm 3 mps 723 mmHg 32%

Tomorrow, 18 April, Sunday

Time Temperature Precipitation Wind Pressure Humidity
00:00 +18°C° 0 mm 2 mps 723 mmHg 32%
01:00 +17°C° 0 mm 2 mps 723 mmHg 32%
02:00 +16°C° 0 mm 2 mps 723 mmHg 32%
03:00 +16°C° 0 mm 2 mps 723 mmHg 33%
04:00 +15°C° 0 mm 1 mps 723 mmHg 33%
05:00 +18°C° 0 mm 1 mps 724 mmHg 32%
06:00 +19°C° 0 mm 1 mps 724 mmHg 30%
07:00 +18°C° 0 mm 0 mps 725 mmHg 28%
08:00 +22°C° 0 mm 1 mps 725 mmHg 25%
09:00 +23°C° 0 mm 2 mps 725 mmHg 22%
10:00 +25°C° 0 mm 2 mps 725 mmHg 19%
11:00 +25°C° 0 mm 3 mps 725 mmHg 18%
12:00 +26°C° 0 mm 4 mps 725 mmHg 17%
13:00 +26°C° 0 mm 4 mps 725 mmHg 16%
14:00 +26°C° 0 mm 3 mps 724 mmHg 15%
15:00 +26°C° 0 mm 3 mps 724 mmHg 15%
16:00 +26°C° 0 mm 2 mps 724 mmHg 14%
17:00 +24°C° 0 mm 1 mps 724 mmHg 17%
18:00 +22°C° 0 mm 1 mps 723 mmHg 21%
19:00 +20°C° 0 mm 1 mps 723 mmHg 24%
20:00 +20°C° 0 mm 1 mps 723 mmHg 24%
21:00 +19°C° 0 mm 1 mps 723 mmHg 24%
22:00 +19°C° 0 mm 1 mps 723 mmHg 24%
23:00 +19°C° 0 mm 1 mps 722 mmHg 25%

Day after tomorrow, 19 April, Monday

Time Temperature Precipitation Wind Pressure Humidity
00:00 +17°C° 0 mm 2 mps 722 mmHg 26%
01:00 +16°C° 0 mm 2 mps 722 mmHg 27%
02:00 +16°C° 0 mm 2 mps 722 mmHg 29%
03:00 +15°C° 0 mm 2 mps 722 mmHg 30%
04:00 +14°C° 0 mm 3 mps 722 mmHg 32%
05:00 +16°C° 0 mm 3 mps 722 mmHg 32%
06:00 +17°C° 0 mm 3 mps 722 mmHg 32%
07:00 +18°C° 0 mm 3 mps 722 mmHg 33%
08:00 +20°C° 0 mm 3 mps 722 mmHg 30%
09:00 +22°C° 0 mm 3 mps 722 mmHg 27%
10:00 +25°C° 0 mm 3 mps 722 mmHg 24%
11:00 +25°C° 0 mm 2 mps 721 mmHg 22%
12:00 +26°C° 0 mm 1 mps 721 mmHg 20%
13:00 +27°C° 0 mm 1 mps 721 mmHg 18%
14:00 +27°C° 0 mm 1 mps 720 mmHg 18%
15:00 +27°C° 0 mm 1 mps 720 mmHg 18%
16:00 +27°C° 0 mm 1 mps 719 mmHg 18%
17:00 +25°C° 0 mm 2 mps 719 mmHg 23%
18:00 +23°C° 0 mm 2 mps 719 mmHg 29%
19:00 +21°C° 0 mm 3 mps 719 mmHg 34%
20:00 +20°C° 0 mm 3 mps 719 mmHg 35%
21:00 +19°C° 0 mm 3 mps 719 mmHg 36%
22:00 +18°C° 0 mm 2 mps 719 mmHg 36%
23:00 +18°C° 0 mm 2 mps 719 mmHg 37%

20 April, Tuesday

Time Temperature Precipitation Wind Pressure Humidity
00:00 +17°C° 0 mm 2 mps 718 mmHg 37%
01:00 +17°C° 0 mm 2 mps 718 mmHg 37%
02:00 +16°C° 0 mm 2 mps 718 mmHg 38%
03:00 +16°C° 0 mm 2 mps 718 mmHg 39%
04:00 +16°C° 0 mm 2 mps 718 mmHg 39%
05:00 +17°C° 0 mm 2 mps 718 mmHg 39%
06:00 +18°C° 0 mm 2 mps 719 mmHg 38%
07:00 +20°C° 0 mm 1 mps 719 mmHg 37%
08:00 +20°C° 0 mm 2 mps 719 mmHg 34%
09:00 +21°C° 0 mm 3 mps 719 mmHg 31%
10:00 +22°C° 0 mm 4 mps 719 mmHg 27%
11:00 +23°C° 0 mm 4 mps 719 mmHg 27%
12:00 +24°C° 0 mm 3 mps 719 mmHg 26%
13:00 +24°C° 0 mm 3 mps 719 mmHg 26%
14:00 +23°C° 0 mm 4 mps 719 mmHg 27%
15:00 +23°C° 0 mm 4 mps 719 mmHg 29%
16:00 +22°C° 0 mm 5 mps 718 mmHg 30%
17:00 +21°C° 0 mm 5 mps 718 mmHg 34%
18:00 +20°C° 0 mm 4 mps 718 mmHg 37%
19:00 +18°C° 0 mm 4 mps 718 mmHg 41%
20:00 +17°C° 0.2 mm 4 mps 719 mmHg 49%
21:00 +15°C° 0.2 mm 4 mps 719 mmHg 57%
22:00 +14°C° 0.2 mm 4 mps 719 mmHg 64%
23:00 +13°C° 0.4 mm 4 mps 719 mmHg 70%

21 April, Wednesday

Time Temperature Precipitation Wind Pressure Humidity
00:00 +13°C° 0.4 mm 4 mps 719 mmHg 75%
01:00 +12°C° 0.4 mm 3 mps 719 mmHg 80%
02:00 +12°C° 0 mm 3 mps 719 mmHg 82%
03:00 +13°C° 0 mm 2 mps 719 mmHg 84%
04:00 +12°C° 0 mm 2 mps 719 mmHg 86%
05:00 +13°C° 0 mm 1 mps 720 mmHg 80%
06:00 +14°C° 0 mm 1 mps 720 mmHg 75%
07:00 +15°C° 0 mm 1 mps 721 mmHg 69%
08:00 +18°C° 0 mm 1 mps 721 mmHg 61%
09:00 +18°C° 0 mm 2 mps 721 mmHg 53%
10:00 +19°C° 0 mm 3 mps 721 mmHg 45%
11:00 +20°C° 0 mm 4 mps 721 mmHg 42%
12:00 +21°C° 0 mm 5 mps 721 mmHg 38%
13:00 +22°C° 0 mm 6 mps 721 mmHg 34%
14:00 +21°C° 0 mm 6 mps 721 mmHg 34%
15:00 +21°C° 0 mm 6 mps 721 mmHg 33%
16:00 +20°C° 0 mm 6 mps 721 mmHg 33%
17:00 +17°C° 0 mm 5 mps 722 mmHg 36%
18:00 +17°C° 0 mm 4 mps 722 mmHg 40%
19:00 +14°C° 0 mm 4 mps 722 mmHg 43%
20:00 +13°C° 0 mm 4 mps 723 mmHg 49%
21:00 +12°C° 0 mm 4 mps 723 mmHg 56%
22:00 +11°C° 0 mm 3 mps 723 mmHg 62%
23:00 +11°C° 0 mm 3 mps 723 mmHg 63%

22 April, Thursday

Time Temperature Precipitation Wind Pressure Humidity
00:00 +10°C° 0 mm 3 mps 723 mmHg 65%
01:00 +9°C° 0 mm 3 mps 723 mmHg 66%
02:00 +9°C° 0 mm 3 mps 723 mmHg 67%
03:00 +9°C° 0 mm 3 mps 724 mmHg 67%
04:00 +8°C° 0 mm 3 mps 724 mmHg 68%
05:00 +9°C° 0 mm 3 mps 724 mmHg 63%
06:00 +10°C° 0 mm 3 mps 724 mmHg 59%
07:00 +11°C° 0 mm 3 mps 725 mmHg 54%
08:00 +13°C° 0 mm 3 mps 725 mmHg 49%
09:00 +14°C° 0 mm 3 mps 725 mmHg 44%
10:00 +17°C° 0 mm 3 mps 725 mmHg 39%
11:00 +18°C° 0 mm 3 mps 725 mmHg 35%
12:00 +20°C° 0 mm 3 mps 725 mmHg 31%
13:00 +21°C° 0 mm 3 mps 724 mmHg 27%
14:00 +21°C° 0 mm 4 mps 724 mmHg 27%
15:00 +21°C° 0 mm 5 mps 724 mmHg 27%
16:00 +21°C° 0 mm 5 mps 724 mmHg 27%
17:00 +19°C° 0 mm 5 mps 725 mmHg 33%
18:00 +16°C° 0 mm 5 mps 725 mmHg 38%
19:00 +14°C° 0 mm 5 mps 725 mmHg 44%
20:00 +14°C° 0 mm 5 mps 725 mmHg 45%
21:00 +13°C° 0 mm 5 mps 725 mmHg 47%
22:00 +12°C° 0 mm 4 mps 725 mmHg 48%
23:00 +12°C° 0 mm 4 mps 724 mmHg 50%
Show more